SB KEPS @ AMSAT $ORB06348.N 2Line Orbital Elements 06348.AMSAT
HR AMSAT ORBITAL ELEMENTS FOR AMATEUR SATELLITES IN NASA FORMAT FROM WA5QGD FORT WORTH,TX December 14, 2006 Send SUBSCRIBE KEPS/UNSUBSCRIBE KEPS to [email protected] only BID: ORB06348.N
DECODE 2-LINE ELSETS WITH THE FOLLOWING KEY: 1 AAAAAU 00 0 0 BBBBB.BBBBBBBB .CCCCCCCC 00000-0 00000-0 0 DDDZ 2 AAAAA EEE.EEEE FFF.FFFF GGGGGGG HHH.HHHH III.IIII JJ.JJJJJJJJKKKKKZ KEY: A-CATALOGNUM B-EPOCHTIME C-DECAY D-ELSETNUM E-INCLINATION F-RAAN G-ECCENTRICITY H-ARGPERIGEE I-MNANOM J-MNMOTION K-ORBITNUM Z-CHECKSUM
TO ALL RADIO AMATEURS BT
AO-07 1 07530U 74089B 06348.70875882 -.00000028 00000-0 10000-3 0 7543 2 07530 101.5443 026.9585 0011947 255.3517 104.6226 12.53572145468004 UO-11 1 14781U 84021B 06348.62884704 .00000479 00000-0 71463-4 0 2499 2 14781 098.2028 002.6464 0009919 049.6879 310.5186 14.79500121222443 RS-10/11 1 18129U 87054A 06348.65044909 .00000033 00000-0 19744-4 0 1697 2 18129 082.9255 194.6676 0011294 319.5258 040.5052 13.72782218975911 RS-15 1 23439U 94085A 06348.85854162 -.00000039 00000-0 10597-3 0 9962 2 23439 064.8182 305.0237 0164690 223.1259 135.6666 11.27552012492916 FO-29 1 24278U 96046B 06347.95092333 -.00000017 00000-0 19189-4 0 04011 2 24278 098.5244 327.7175 0350150 203.3538 155.1356 13.52925476509854 SO-33 1 25509U 98061B 06347.88509593 .00000167 00000-0 18658-4 0 08177 2 25509 031.4312 193.4024 0355890 247.3954 108.8636 14.28139497424745 VO-52 1 28650U 05017B 06348.76411771 .00000426 00000-0 61147-4 0 5046 2 28650 097.8541 058.4188 0028074 132.4867 227.8769 14.81231279 87119 AO-16 1 20439U 90005D 06347.54638422 .00000019 00000-0 22325-4 0 09185 2 20439 098.1891 347.4228 0011638 024.1631 336.0101 14.31743365881987 LO-19 1 20442U 90005G 06348.45452573 .00000058 00000-0 36619-4 0 8498 2 20442 098.1828 357.7912 0012371 021.2456 338.9258 14.31985566882259 AO-27 1 22825U 93061C 06348.79351950 .00000122 00000-0 64382-4 0 5682 2 22825 098.3070 321.9698 0009393 086.6396 273.5842 14.29193750689159 IO-26 1 22826U 93061D 06347.89252897 .00000044 00000-0 33262-4 0 02620 2 22826 098.3002 322.2567 0009925 085.9590 274.2730 14.29438288689100 PO-28 1 22829U 93061G 06347.58915848 .00000096 00000-0 52818-4 0 05450 2 22829 098.2907 323.1581 0010691 065.5154 294.7140 14.30135897689287 GO-32 1 25397U 98043D 06347.68736272 -.00000010 00000-0 13835-4 0 1809 2 25397 098.4434 037.7524 0002051 063.3730 296.7670 14.23116536437775 MO-46 1 26548U 00057D 06348.49473902 .00000246 00000-0 48107-4 0 6719 2 26548 064.5583 034.0156 0035834 221.9071 137.9266 14.83068448336149 NO-44 1 26931U 01043C 06347.74700426 -.00000254 00000-0 -66855-4 0 04733 2 26931 067.0529 265.1662 0004831 267.7769 092.2770 14.29463632271591 SO-50 1 27607U 02058C 06348.30319477 .00000183 00000-0 51121-4 0 1934 2 27607 064.5581 286.3296 0035889 067.3863 293.1010 14.71207228213922 CO-55 1 27844U 03031E 06348.55796691 -.00000033 00000-0 51940-5 0 9150 2 27844 098.7199 354.3814 0009205 263.5961 096.4141 14.20478286179268 CO-57 1 27848U 03031J 06347.49857275 .00000054 00000-0 45929-4 0 08792 2 27848 098.7182 352.6016 0009133 271.8885 088.1248 14.20301726179097 AO-51 1 28375U 04025K 06347.69852295 .00000044 00000-0 26105-4 0 6984 2 28375 098.1398 031.3181 0085147 024.6358 335.8863 14.40546869129000 CO-56 1 28941U 06005C 06347.59401309 .00026732 25800-5 31137-3 0 02896 2 28941 098.1568 023.8890 0254251 206.2188 152.6004 15.31884469044947 HO-59 1 29484U 06041F 06348.60639075 .00043445 29423-5 37647-3 0 1060 2 29484 098.3117 007.2148 0258548 200.7042 158.3618 15.36969852 12590 NOAA-10 1 16969U 86073A 06347.60526737 -.00000060 00000-0 -63145-5 0 04617 2 16969 098.7557 359.5886 0012435 351.8773 008.2197 14.27311675052750 NOAA-11 1 19531U 88089A 06347.42349137 .00000142 00000-0 96118-4 0 04288 2 19531 098.8207 073.8539 0011432 196.2224 163.8580 14.14829937939883 NOAA-12 1 21263U 91032A 06347.58212494 .00000093 00000-0 58230-4 0 09257 2 21263 098.7447 340.2320 0012085 287.8276 072.1580 14.25518397809808 MET-3/5 1 21655U 91056A 06348.64216104 .00000051 00000-0 10000-3 0 1986 2 21655 082.5529 133.3279 0012877 314.5283 045.4785 13.17009057737116 MET-2/21 1 22782U 93055A 06347.66383429 -.00000036 00000-0 -46102-4 0 6944 2 22782 082.5468 189.0793 0023451 039.3350 320.9493 13.83613248670867 OKEAN-4 1 23317U 94066A 06347.70050897 .00000295 00000-0 33593-4 0 01318 2 23317 082.5392 109.5788 0023276 140.6733 219.6171 14.82440644656572 NOAA-14 1 23455U 94089A 06347.64783783 .00000322 00000-0 19468-3 0 04202 2 23455 099.0161 047.6267 0008789 263.1529 096.8640 14.13686244616420 SICH-1 1 23657U 95046A 06348.69475757 .00000223 00000-0 25355-4 0 9348 2 23657 082.5277 249.5414 0025050 126.5952 233.7572 14.81428264608718 NOAA-15 1 25338U 98030A 06347.75513818 .00000112 00000-0 66641-4 0 07897 2 25338 098.5237 344.7512 0010168 206.8043 153.2630 14.24616458446287 RESURS 1 25394U 98043A 06347.79665942 .00000020 00000-0 26928-4 0 5242 2 25394 098.4701 044.4073 0002165 031.3410 328.7897 14.24121000437960 FENGYUN1 1 25730U 99025A 06347.70767014 -.00000076 00000-0 -18352-4 0 09048 2 25730 098.6429 333.6017 0014561 352.8441 007.2537 14.11819380391344 OKEAN-0 1 25860U 99039A 06347.56655837 .00000150 00000-0 30320-4 0 09286 2 25860 097.7298 353.5164 0000466 064.7010 295.4230 14.73413936398169 NOAA-16 1 26536U 00055A 06347.58886068 -.00000050 00000-0 -20088-5 0 01858 2 26536 099.0937 316.5428 0010392 339.3297 020.7438 14.12389823320900 NOAA-17 1 27453U 02032A 06347.65081452 .00000203 00000-0 10768-3 0 02048 2 27453 098.6037 056.2111 0010989 273.7802 086.2119 14.23836615232315 NOAA-18 1 28654U 05018A 06348.32286655 .00000429 00000-0 26274-3 0 7589 2 28654 098.8100 287.9049 0015074 072.2787 288.0036 14.11020041 80786 HUBBLE 1 20580U 90037B 06347.26544773 .00000706 00000-0 42201-4 0 07671 2 20580 028.4692 322.4132 0003628 281.8494 078.1686 15.00154929712013 UARS 1 21701U 91063B 06347.64576683 .00008553 00000-0 15197-3 0 9442 2 21701 056.9758 037.8185 0097551 190.8747 169.0201 15.45996978837031 PO-34 1 25520U 98064B 06347.97482086 .00000885 00000-0 34032-4 0 06326 2 25520 028.4609 268.2592 0004968 038.9079 321.1863 15.16875301449370 ISS 1 25544U 98067A 06349.02101644 .00022969 00000-0 14659-3 0 2607 2 25544 051.6361 335.2064 0023640 337.1016 119.2940 15.75897625461690 OO-38 1 26063U 00004C 06348.64210280 .00000023 00000-0 28193-4 0 7906 2 26063 100.2101 312.3258 0036738 319.6560 040.1890 14.35789164360565 NO-45 1 26932U 01043D 06347.96168680 -.00000015 00000-0 26413-4 0 04941 2 26932 067.0514 264.3480 0003615 247.7696 112.3020 14.29543536271663 UWE-1 1 28892U 05043C 06348.85802681 .00000508 00000-0 11670-3 0 6280 2 28892 098.1463 243.9595 0017127 331.1410 028.8905 14.59440744 60325 CO-58 1 28895U 05043F 06347.40318668 .00000154 00000-0 42209-4 0 06099 2 28895 098.1498 242.6730 0017397 335.5007 024.5350 14.59487152059994 NCUBE2 1 28897U 05043H 06347.22418853 .00000280 00000-0 68542-4 0 01585 2 28897 098.1481 242.4703 0017193 337.9442 022.1015 14.59645780052245 /EX
participants (1)
-
Ray Hoad